This demonstration page uses our WeatherBlox Daily Observations layout. Learn more.

Left ArrowRight Arrow

Hourly Observations for August 23, 2022

Temp ( °F °C ) Dew Point ( °F °C ) Humidity (%) Winds ( mph kmh ) Pressure ( in mb ) Visibility ( mi km ) Precip ( " mm )
12:52 am 00:52 Clear 70 21.1 60 15.6 71 71 SSE 8 13 30.02 1017 10 16 0.00 0.00
1:52 am 01:52 Clear 68 20 60 15.6 76 76 SE 6 9 30.01 1016 10 16 0.00 0.00
2:52 am 02:52 Mostly Clear 68 20 59 15 73 73 SE 6 9 30.00 1016 10 16 0.00 0.00
3:52 am 03:52 Clear 66 18.9 59 15 78 78 SSE 5 7 30.00 1016 10 16 0.00 0.00
4:52 am 04:52 Clear 66 18.9 59 15 78 78 SSE 3 6 30.00 1016 10 16 0.00 0.00
5:52 am 05:52 Mostly Clear 67 19.4 59 15 76 76 S 3 6 30.00 1016 10 16 0.00 0.00
6:52 am 06:52 Mostly Sunny 65 18.3 60 15.6 84 84 ESE 3 6 30.01 1016 10 16 0.00 0.00
7:52 am 07:52 Partly Cloudy 67 19.4 62 16.7 84 84 SSE 5 7 30.01 1016 10 16 0.00 0.00
8:52 am 08:52 Partly Cloudy 70 21.1 62 16.7 76 76 SE 5 7 30.02 1017 10 16 0.00 0.00
9:52 am 09:52 Partly Cloudy 75 23.9 64 17.8 69 69 SSE 6 9 30.02 1017 10 16 0.00 0.00
10:52 am 10:52 Partly Cloudy 79 26.1 65 18.3 62 62 S 6 9 30.01 1016 10 16 0.00 0.00
11:52 am 11:52 Partly Cloudy 82 27.8 64 17.8 55 55 S 10 17 30.00 1016 10 16 0.00 0.00
12:52 pm 12:52 Partly Cloudy 84 28.9 63 17.2 49 49 S 8 13 29.98 1015 10 16 0.00 0.00
1:52 pm 13:52 Mostly Sunny 86 30 62 16.7 45 45 SSE 12 19 29.96 1015 10 16 0.00 0.00
2:52 pm 14:52 Mostly Sunny 87 30.6 62 16.7 43 43 SSE 8 13 29.95 1014 10 16 0.00 0.00
3:52 pm 15:52 Mostly Sunny 88 31.1 62 16.7 42 42 S 8 13 29.93 1014 10 16 0.00 0.00
4:52 pm 16:52 Mostly Sunny 89 31.7 63 17.2 42 42 S 10 17 29.92 1013 10 16 0.00 0.00
5:52 pm 17:52 Mostly Sunny 88 31.1 63 17.2 43 43 S 9 15 29.91 1013 10 16 0.00 0.00
6:52 pm 18:52 Mostly Sunny 86 30 64 17.8 48 48 SSE 15 24 29.91 1013 10 16 0.00 0.00
7:52 pm 19:52 Mostly Sunny 83 28.3 63 17.2 51 51 S 13 20 29.91 1013 10 16 0.00 0.00
8:52 pm 20:52 Partly Cloudy 80 26.7 65 18.3 60 60 SSE 10 17 29.93 1014 10 16 0.00 0.00
9:52 pm 21:52 Partly Cloudy 79 26.1 65 18.3 62 62 S 10 17 29.95 1014 10 16 0.00 0.00
10:52 pm 22:52 Partly Cloudy 77 25 65 18.3 66 66 S 8 13 29.97 1015 10 16 0.00 0.00
11:52 pm 23:52 Partly Cloudy 77 25 64 17.8 64 64 S 8 13 29.96 1015 10 16 0.00 0.00

Powered by AerisWeather